Location: Krasnoyarskiy Pitomnik
(51.1333°N, 71.6167°E)
Time: 19:23:08
(UTC+00:00)

Vanguard 2 - Pass Details

Date: 27 April 2024
Orbit: 553 x 2914 km, 32.9° (Epoch: 22 May)

Event Time Altitude Azimuth Distance (km) Brightness Sun altitude
Exits shadow 20:56:16 26° 219° (SW) 3,841 10.4 -20.8°
Maximum altitude 21:03:13 38° 176° (S) 3,599 10.5 -20.2°
Drops below altitude 10° 21:18:26 10° 117° (ESE) 5,735 12.0 -19.0°
Sets 21:23:19 0° 111° (ESE) 6,698 12.5 -18.6°
